[[{"header":{"parameterUnit":"m.s-1","parameterCategory":1,"la1":30.2991,"la2":30.254,"lo1":-89.0895,"lo2":-89.0444,"dy":0.0017,"dx":0.0017,"nx":28,"ny":28,"refTime":"2024-04-16T03:00:00:Z","depth":0,"parameterNumber":2,"parameterNumberName":"U-component_of_WINDS"},"data":[0,0,0,0,0,0,0,0,0,0,0,0,0,0,0,0,0,0,0,0,0,0,0,0,0,0,0,0,0,0,0,0,0,0,0,0,0,0,0,0,0,0,0,0,0,0,0,0,0,0,0,0,0,0,0,0,0,0,-4.7322,-4.7323,0,-4.7405,-4.7406,-4.7407,-4.7401,-4.7399,-4.7398,-4.7397,-4.7479,-4.7483,-4.7486,0,0,0,0,0,0,0,0,0,0,0,0,0,-4.7156,-4.7159,-4.7322,-4.7323,-4.7324,-4.7405,-4.7406,-4.7408,-4.7401,-4.7399,-4.7398,-4.7396,-4.7478,-4.7482,-4.7486,0,0,0,0,0,0,0,0,0,0,0,0,0,-4.7233,-4.716,-4.7322,-4.7331,-4.7332,-4.7405,-4.7407,-4.7408,-4.7401,-4.7399,-4.7397,-4.7396,-4.7477,-4.7482,-4.7487,-4.7555,0,0,-4.7502,-4.7504,0,0,0,0,0,0,0,0,-4.7228,-4.7239,-4.7328,-4.733,-4.7332,-4.7391,-4.7378,-4.7457,-4.7402,-4.7375,-4.7397,-4.7395,-4.7451,-4.7458,-4.7478,-4.7559,-4.7563,-4.7503,-4.7506,-4.7508,-4.7509,0,0,0,0,0,0,0,-4.7223,-4.7235,-4.7355,-4.733,-4.7332,-4.733,-4.7339,-4.7393,-4.7422,-4.7377,-4.7377,-4.7387,-4.7452,-4.7473,-4.748,-4.7564,-4.7503,-4.7507,-4.751,-4.7512,-4.7707,-4.7709,0,0,0,0,0,0,-4.7216,-4.7231,-4.7352,-4.7357,-4.7275,-4.7335,-4.7344,-4.7374,-4.7422,-4.7427,-4.7388,-4.7386,-4.7465,-4.7474,-4.7483,-4.7565,-4.7508,-4.7513,-4.7515,-4.7705,-4.7707,-4.771,0,0,0,0,0,0,-4.7212,-4.7227,-4.7349,-4.7294,-4.7309,-4.7339,-4.7372,-4.7376,-4.7397,-4.7431,-4.7435,-4.7405,-4.7464,-4.7476,-4.7538,-4.7568,-4.7515,-4.7519,-4.7702,-4.7705,-4.7708,-4.7732,0,0,0,0,0,0,-4.7208,-4.7226,-4.7252,-4.7295,-4.7312,-4.7403,-4.7374,-4.7379,-4.7407,-4.7405,-4.7447,-4.7452,-4.7464,-4.753,-4.7543,-4.7574,-4.7523,-4.7699,-4.7704,-4.7707,-4.7728,-4.7735,-4.7742,0,0,0,0,0,-4.7202,-4.7254,-4.7253,-4.7268,-4.7346,-4.7404,-4.7414,-4.7427,-4.7409,-4.7435,-4.7457,-4.7451,-4.7564,-4.7537,-4.7551,-4.7584,-4.7697,-4.7702,-4.7707,-4.7725,-4.7734,-4.7741,0,0,0,0,0,0,-4.7212,-4.726,-4.7259,-4.7327,-4.7362,-4.7403,-4.7436,-4.7436,-4.7476,-4.7472,-4.7486,-4.7496,-4.7558,-4.7578,-4.7547,-4.7654,-4.7628,-4.7636,-4.7637,-4.7646,-4.7652,-4.7644,-4.7528,0,0,0,0,0,-4.7223,-4.7267,-4.7306,-4.7363,-4.738,-4.7406,-4.7432,-4.7439,-4.7475,-4.7489,-4.7515,-4.755,-4.7594,-4.7621,-4.7663,-4.7733,-4.7742,-4.7763,-4.777,-4.7775,-4.778,-4.7818,-4.7828,-4.7725,-4.7725,-4.7725,0,0,-4.7244,-4.7276,-4.7302,-4.7366,-4.7393,-4.7438,-4.7418,-4.7466,-4.7499,-4.7496,-4.7556,-4.7577,-4.7617,-4.7683,-4.7714,-4.7702,-4.7812,-4.7781,-4.7785,-4.7788,-4.7824,-4.7834,-4.7843,-4.7729,-4.7728,-4.7728,0,0,-4.7305,-4.7335,-4.7385,-4.7414,-4.7457,-4.7474,-4.7487,-4.7529,-4.7543,-4.7604,-4.7603,-4.7643,-4.7718,-4.7746,-4.777,-4.7847,-4.7842,-4.7861,-4.7893,-4.793,-4.7938,-4.7945,-4.7971,-4.798,-4.7867,-4.7867,-4.7867,0,-4.7326,-4.7394,-4.741,-4.7459,-4.7486,-4.7489,-4.754,-4.7567,-4.7621,-4.764,-4.7627,-4.7722,-4.7749,-4.7821,-4.784,-4.7861,-4.7874,-4.7853,-4.7936,-4.7943,-4.795,-4.7974,-4.7984,-4.7868,-4.7868,-4.7868,-4.7868,0,-4.7416,-4.7464,-4.7499,-4.7552,-4.7585,-4.7634,-4.7658,-4.7689,-4.7695,-4.7714,-4.7776,-4.781,-4.7858,-4.7877,-4.7883,-4.7951,-4.7943,-4.7933,-4.7907,-4.7961,-4.7984,-4.7994,-4.7871,-4.787,-4.787,-4.7869,0,0,-4.7481,-4.7546,-4.7559,-4.7583,-4.7633,-4.767,-4.7721,-4.777,-4.7795,-4.7834,-4.7875,-4.7941,-4.7932,-4.796,-4.797,-4.8003,-4.806,-4.7989,-4.799,-4.7999,-4.8136,-4.814,-4.8151,-4.8059,-4.8061,-4.8063,-4.8132,0,-4.7545,-4.7634,-4.7652,-4.7729,-4.7773,-4.7779,-4.7823,-4.7858,-4.7878,-4.7918,-4.794,-4.7985,-4.7972,-4.7989,-4.8022,-4.8046,-4.8087,-4.8041,-4.8096,-4.8098,-4.8082,-4.8163,-4.8168,-4.8231,-4.8141,-4.8143,-4.8144,0,-4.7631,-4.7673,-4.7754,-4.78,-4.7819,-4.7858,-4.7905,-4.7944,-4.7985,-4.7997,-4.803,-4.8037,-4.8089,-4.8065,-4.8137,-4.8106,-4.813,-4.8145,-4.8148,-4.815,-4.8121,-4.8165,-4.8252,-4.826,-4.8159,-4.8157,-4.8156,0,-4.7667,-4.7745,-4.7804,-4.7825,-4.788,-4.7907,-4.7931,-4.7971,-4.8,-4.8041,-4.806,-4.8108,-4.8133,-4.8169,-4.8189,-4.8169,-4.8259,-4.8236,-4.8269,-4.8269,-4.8284,-4.8282,-4.8373,-4.8306,-4.8306,-4.8306,-4.8305,0,-4.7734,-4.7783,-4.7821,-4.7856,-4.7912,-4.7934,-4.7988,-4.8012,-4.8048,-4.8088,-4.8097,-4.8134,-4.816,-4.8201,-4.8217,-4.8274,-4.8286,-4.8297,-4.8299,-4.8294,-4.8292,-4.8307,-4.8301,-4.8308,-4.8308,-4.8307,-4.8307,0,-4.7782,-4.7809,-4.7874,-4.7922,-4.7935,-4.7974,-4.8015,-4.805,-4.8072,-4.8123,-4.8137,-4.8171,-4.822,-4.8245,-4.8306,-4.8317,-4.838,-4.8382,-4.8366,-4.8367,-4.8398,-4.8393,-4.8498,-4.8512,-4.8439,-4.8439,-4.844,0,-4.7821,-4.7859,-4.7913,-4.7941,-4.7966,-4.8012,-4.8042,-4.8066,-4.8097,-4.8148,-4.8177,-4.8227,-4.8268,-4.8348,-4.8377,-4.8425,-4.8426,-4.846,-4.8432,-4.8426,-4.8423,-4.8419,-4.8423,-4.8463,-4.8463,-4.8464,-4.8464,0,-4.7887,-4.79,-4.7943,-4.7993,-4.8029,-4.8068,-4.8107,-4.813,-4.8161,-4.8195,-4.8247,-4.8279,-4.8343,-4.8392,-4.8443,-4.8467,-4.847,-4.8474,-4.8483,-4.8476,-4.8464,-4.8468,-4.8376,-4.847,-4.8469,-4.8469,-4.8469,-4.8468,-4.793,-4.7965,-4.8008,-4.8056,-4.8089,-4.8126,-4.8161,-4.8189,-4.8233,-4.8287,-4.8299,-4.8354,-4.8395,-4.8463,-4.849,-4.8533,-4.8525,-4.854,-4.8543,-4.8545,-4.8546,-4.8461,-4.8542,-4.8542,-4.8542,-4.8542,-4.8542,0,-4.7995,-4.8024,-4.8069,-4.8124,-4.8162,-4.8166,-4.821,-4.8241,-4.8289,-4.8329,-4.837,-4.843,-4.8479,-4.8514,-4.8564,-4.8591,-4.8594,-4.8603,-4.86,-4.8605,-4.8551,-4.8536,-4.86,-4.86,-4.86,-4.86,-4.86,-4.86,-4.8032,-4.809,-4.8108,-4.8183,-4.8212,-4.8266,-4.8291,-4.8325,-4.8356,-4.8423,-4.8464,-4.8488,-4.8526,-4.8579,-4.8625,-4.8634,-4.8651,-4.8659,-4.8668,-4.8615,-4.8609,-4.8603,-4.8589,-4.8664,-4.8664,-4.8719,-4.8719,-4.872]},{"header":{"parameterUnit":"m.s-1","parameterCategory":1,"la1":30.2991,"la2":30.254,"lo1":-89.0895,"lo2":-89.0444,"dy":0.0017,"dx":0.0017,"nx":28,"ny":28,"refTime":"2024-04-16T03:00:00:Z","depth":0,"parameterNumber":3,"parameterNumberName":"V-component_of_WINDS"},"data":[0,0,0,0,0,0,0,0,0,0,0,0,0,0,0,0,0,0,0,0,0,0,0,0,0,0,0,0,0,0,0,0,0,0,0,0,0,0,0,0,0,0,0,0,0,0,0,0,0,0,0,0,0,0,0,0,0,0,4.2323,4.2324,0,4.2386,4.2386,4.2387,4.2444,4.2445,4.2446,4.2446,4.2508,4.2509,4.251,0,0,0,0,0,0,0,0,0,0,0,0,0,4.2253,4.2254,4.2323,4.2324,4.2325,4.2385,4.2386,4.2387,4.2444,4.2445,4.2446,4.2447,4.2507,4.2509,4.251,0,0,0,0,0,0,0,0,0,0,0,0,0,4.2296,4.2254,4.2323,4.2361,4.2365,4.2385,4.2386,4.2387,4.2444,4.2445,4.2446,4.2447,4.2507,4.2508,4.251,4.2498,0,0,4.2514,4.2515,0,0,0,0,0,0,0,0,4.2293,4.2298,4.2354,4.2358,4.2363,4.2408,4.2384,4.2424,4.2444,4.2414,4.2446,4.2448,4.2474,4.2478,4.2487,4.2501,4.2503,4.2515,4.2515,4.2516,4.2516,0,0,0,0,0,0,0,4.229,4.2296,4.2348,4.2355,4.236,4.2374,4.2381,4.2392,4.2437,4.2416,4.2421,4.2427,4.2476,4.2486,4.2489,4.2504,4.2515,4.2516,4.2517,4.2517,4.2513,4.2512,0,0,0,0,0,0,4.2282,4.2293,4.2346,4.235,4.233,4.2374,4.2383,4.2392,4.2437,4.2445,4.2427,4.243,4.2483,4.2487,4.2491,4.2482,4.2516,4.2517,4.2518,4.2514,4.2513,4.2512,0,0,0,0,0,0,4.228,4.2286,4.2343,4.2323,4.2331,4.2375,4.2385,4.2393,4.2403,4.2445,4.2453,4.2428,4.2484,4.2489,4.2497,4.2485,4.2518,4.2519,4.2515,4.2514,4.2512,4.2461,0,0,0,0,0,0,4.2278,4.2285,4.2281,4.2322,4.2332,4.2347,4.2384,4.2394,4.2406,4.2411,4.2448,4.2456,4.2485,4.2494,4.2498,4.2487,4.2521,4.2516,4.2514,4.2513,4.2464,4.2458,4.2453,0,0,0,0,0,4.2275,4.2263,4.228,4.2286,4.2328,4.2347,4.2352,4.2387,4.2404,4.2401,4.2428,4.2454,4.2485,4.2494,4.2499,4.2489,4.2517,4.2515,4.2513,4.2467,4.2459,4.2453,0,0,0,0,0,0,4.2218,4.2269,4.2289,4.229,4.2314,4.2356,4.2353,4.2378,4.2396,4.24,4.2442,4.245,4.2452,4.2471,4.248,4.248,4.2505,4.2504,4.2468,4.2461,4.2456,4.2452,4.2522,0,0,0,0,0,4.2206,4.2217,4.2261,4.2258,4.2269,4.2308,4.2318,4.2343,4.2369,4.2379,4.2406,4.243,4.2445,4.2454,4.247,4.2467,4.2477,4.2462,4.2457,4.2452,4.245,4.2451,4.2446,4.2504,4.2504,4.2504,0,0,4.218,4.221,4.2214,4.2247,4.2268,4.2279,4.2316,4.2326,4.2335,4.238,4.2389,4.241,4.2439,4.2441,4.2444,4.2457,4.2436,4.2449,4.2445,4.2446,4.2449,4.2443,4.2438,4.2503,4.2503,4.2503,0,0,4.214,4.2162,4.2163,4.2184,4.2217,4.2243,4.2243,4.2283,4.2299,4.2309,4.2344,4.2354,4.2379,4.2399,4.2412,4.2381,4.2406,4.2385,4.2356,4.2356,4.2352,4.2348,4.2338,4.2334,4.2383,4.2383,4.2383,0,4.2104,4.2122,4.216,4.2168,4.2182,4.2225,4.2227,4.2245,4.228,4.2289,4.2303,4.2337,4.2359,4.2368,4.236,4.2369,4.2371,4.2381,4.2349,4.2346,4.2343,4.2334,4.233,4.238,4.238,4.2381,4.2381,0,4.2077,4.2089,4.2086,4.2121,4.2134,4.2138,4.2177,4.2186,4.221,4.2235,4.2246,4.2274,4.2298,4.2302,4.2324,4.2313,4.2321,4.2342,4.2368,4.2334,4.2326,4.2323,4.2376,4.2377,4.2378,4.2379,0,0,4.2002,4.2059,4.2057,4.2074,4.2113,4.2123,4.213,4.2154,4.2162,4.2185,4.2192,4.2213,4.2233,4.2248,4.2274,4.2274,4.2249,4.2295,4.2297,4.2287,4.224,4.2225,4.222,4.2266,4.2266,4.2265,4.2238,0,4.1969,4.1984,4.2019,4.2024,4.2036,4.2078,4.2084,4.2109,4.2132,4.2146,4.2172,4.2187,4.2212,4.2222,4.2224,4.2252,4.224,4.2254,4.2273,4.2274,4.2266,4.2216,4.22,4.2173,4.2235,4.2235,4.2234,0,4.1932,4.1954,4.196,4.2001,4.2007,4.2012,4.2038,4.205,4.2079,4.2097,4.2114,4.2143,4.2153,4.2176,4.219,4.2199,4.2209,4.2224,4.2223,4.2227,4.2252,4.2219,4.2165,4.2161,4.223,4.223,4.223,0,4.1878,4.191,4.1918,4.1931,4.1977,4.198,4.2,4.203,4.2043,4.2065,4.2074,4.2096,4.2109,4.2125,4.216,4.2173,4.217,4.2196,4.2185,4.2184,4.2183,4.2183,4.2131,4.2188,4.2188,4.2188,4.2188,0,4.1838,4.1841,4.1895,4.19,4.1904,4.1944,4.1947,4.197,4.1997,4.2008,4.2044,4.2053,4.2097,4.2111,4.2137,4.2146,4.2151,4.2165,4.2172,4.2163,4.2161,4.217,4.2173,4.2187,4.2187,4.2187,4.2188,0,4.1779,4.1815,4.1827,4.1871,4.1882,4.1883,4.1921,4.1927,4.1954,4.1967,4.1972,4.2013,4.2032,4.2067,4.2095,4.2113,4.2116,4.2128,4.2106,4.2111,4.2099,4.21,4.2051,4.2047,4.2106,4.2105,4.2105,0,4.1752,4.1755,4.18,4.181,4.1828,4.1844,4.1857,4.1897,4.191,4.1944,4.1947,4.1968,4.1988,4.2015,4.2048,4.2069,4.2083,4.2064,4.2086,4.2077,4.2084,4.2084,4.2085,4.2059,4.2058,4.2058,4.2057,0,4.17,4.1718,4.1737,4.1762,4.1778,4.1799,4.1823,4.1829,4.1874,4.1886,4.1906,4.1921,4.1951,4.1972,4.1999,4.2019,4.2046,4.205,4.2049,4.2039,4.2027,4.2035,4.2094,4.2051,4.2052,4.2052,4.2053,4.2053,4.1657,4.1663,4.1695,4.1715,4.1737,4.1758,4.1767,4.1795,4.1813,4.1841,4.1863,4.1881,4.1912,4.1951,4.1969,4.1984,4.1996,4.1994,4.1994,4.1993,4.199,4.2024,4.1988,4.1989,4.1989,4.1989,4.1989,0,4.1608,4.1632,4.165,4.1682,4.1698,4.1723,4.175,4.1762,4.1778,4.1804,4.1823,4.1846,4.1867,4.1901,4.1925,4.193,4.1943,4.1935,4.1936,4.194,4.1976,4.1976,4.1924,4.1924,4.1925,4.1925,4.1925,4.1925,4.1585,4.1596,4.1618,4.164,4.1663,4.1682,4.1696,4.1716,4.1737,4.1762,4.178,4.1803,4.1832,4.1859,4.1879,4.1889,4.1896,4.1884,4.1898,4.1931,4.1937,4.1943,4.1943,4.1886,4.1885,4.1861,4.186,4.186]}]]